Weather History for EIWF - May, 2014

Change the Weather History Date:

Friday, May 2, 2014

  Actual Average Record
Temperature  
Mean Temperature 52 °F -  
Max Temperature 57 °F - - ()
Min Temperature 46 °F - - ()
Degree Days  
Heating Degree Days 14    
Growing Degree Days 2 (Base 50)    
Moisture  
Dew Point 47 °F    
Average Humidity 82    
Maximum Humidity 93    
Minimum Humidity 72    
Precipitation  
Precipitation 0.00 in - - ()
Sea Level Pressure  
Sea Level Pressure 30.28 in    
Wind  
Wind Speed 7 mph ()    
Max Wind Speed 10 mph    
Max Gust Speed -    
Visibility 6.2 miles    
Events      
T = Trace of Precipitation, MM = Missing Value Source: Averaged Metar Reports

Daily Weather History Graph

Daily Weather History Graph

Search for Another Location

Airport or City:

Trip Planner

Search our weather history database for the weather conditions in past years. The results will help you decide how hot, cold, wet, or windy it might be!

Date:

Astronomy

May. 02, 2014 Rise Set
Actual Time 5:56 AM IST 8:55 PM IST
Civil Twilight 5:17 AM IST 9:34 PM IST
Nautical Twilight 4:26 AM IST 10:26 PM IST
Astronomical Twilight 3:20 AM IST 11:32 PM IST
Moon 8:13 AM IST (5/2) No Moon Set
Length of Visible Light 16h 17m
Length of Day
14h 58m
Waxing Crescent, 11% of the Moon is Illuminated
May 2
Waxing Crescent
May 7
First Quarter
May 14
Full
May 21
Last Quarter
May 28
New

Hourly Weather History & Observations

Time (IST) Temp. Windchill Dew Point Humidity Pressure Visibility Wind Dir Wind Speed Gust Speed Precip Events Conditions
6:30 AM 46.4 °F 43.5 °F 44.6 °F 93% 30.18 in 5.6 mi ENE 5.8 mph - N/A   Mostly Cloudy
7:00 AM 48.2 °F - 46.4 °F 93% 30.21 in 6.2 mi ENE 6.9 mph - N/A   Mostly Cloudy
7:30 AM 48.2 °F - 46.4 °F 93% 30.21 in 6.2 mi ENE 8.1 mph - N/A   Mostly Cloudy
8:00 AM 48.2 °F - 46.4 °F 93% 30.21 in 6.2 mi East 10.4 mph - N/A   Scattered Clouds
8:30 AM 50.0 °F - 46.4 °F 87% 30.21 in 6.2 mi East 9.2 mph - N/A   Scattered Clouds
9:00 AM 50.0 °F - 46.4 °F 87% 30.24 in 6.2 mi East 10.4 mph - N/A   Mostly Cloudy
9:30 AM 50.0 °F - 46.4 °F 87% 30.24 in 6.2 mi East 9.2 mph - N/A   Scattered Clouds
10:00 AM 51.8 °F - 46.4 °F 82% 30.24 in 6.2 mi ESE 9.2 mph - N/A   Mostly Cloudy
10:30 AM 51.8 °F - 48.2 °F 88% 30.27 in 6.2 mi ESE 6.9 mph - N/A   Mostly Cloudy
11:00 AM 53.6 °F - 48.2 °F 82% 30.27 in 6.2 mi ESE 5.8 mph - N/A   Mostly Cloudy
11:30 AM 53.6 °F - 46.4 °F 77% 30.27 in 6.2 mi ESE 6.9 mph - N/A   Scattered Clouds
12:00 PM 55.4 °F - 46.4 °F 72% 30.27 in 6.2 mi SE 5.8 mph - N/A   Mostly Cloudy
12:30 PM 57.2 °F - 48.2 °F 72% 30.27 in 6.2 mi SSE 5.8 mph - N/A   Mostly Cloudy
1:00 PM 57.2 °F - 48.2 °F 72% 30.27 in 6.2 mi SSE 8.1 mph - N/A   Mostly Cloudy
1:30 PM 55.4 °F - 50.0 °F 82% 30.30 in 6.2 mi SSE 6.9 mph - N/A   Mostly Cloudy
2:00 PM 53.6 °F - 48.2 °F 82% 30.30 in 6.2 mi South 6.9 mph - N/A   Mostly Cloudy
2:30 PM 53.6 °F - 48.2 °F 82% 30.30 in 6.2 mi South 8.1 mph - N/A   Overcast
3:00 PM 55.4 °F - 48.2 °F 77% 30.30 in 6.2 mi SSE 8.1 mph - N/A   Mostly Cloudy
3:30 PM 55.4 °F - 46.4 °F 72% 30.30 in 6.2 mi SSE 6.9 mph - N/A   Mostly Cloudy
4:00 PM 55.4 °F - 46.4 °F 72% 30.30 in 6.2 mi SSE 8.1 mph - N/A   Mostly Cloudy
4:30 PM 53.6 °F - 46.4 °F 77% 30.30 in 6.2 mi SSE 8.1 mph - N/A   Mostly Cloudy
5:00 PM 53.6 °F - 46.4 °F 77% 30.30 in 6.2 mi SSE 8.1 mph - N/A   Mostly Cloudy
5:30 PM 53.6 °F - 46.4 °F 77% 30.30 in 6.2 mi SSE 8.1 mph - N/A   Mostly Cloudy
6:00 PM 51.8 °F - 46.4 °F 82% 30.33 in 6.2 mi South 5.8 mph - N/A   Mostly Cloudy
6:30 PM 51.8 °F - 46.4 °F 82% 30.33 in 6.2 mi South 5.8 mph - N/A   Scattered Clouds
7:00 PM 51.8 °F - 46.4 °F 82% 30.33 in 6.2 mi SSE 6.9 mph - N/A   Scattered Clouds
7:30 PM 51.8 °F - 46.4 °F 82% 30.33 in 6.2 mi SE 6.9 mph - N/A   Scattered Clouds
8:00 PM 51.8 °F - 46.4 °F 82% 30.33 in 6.2 mi SSE 5.8 mph - N/A   Scattered Clouds
8:30 PM 50.0 °F - 46.4 °F 87% 30.33 in 6.2 mi SE 5.8 mph - N/A   Partly Cloudy